• In Russia
  • List of Countries
  • For 7 days
  • Water Temperature
  • Satellite Maps
  • Weather Map
  • Weather Widgets
  • user-avatar
    Login

    Hourly Weather Pakoslaw

    Today, 20 February, Wednesday

    Time Temperature Precipitation Wind Pressure Humidity
    00:00 +3°C° 0 mm 5 mps 753 mmHg 84%
    01:00 +4°C° 0 mm 4 mps 753 mmHg 83%
    02:00 +2°C° 0 mm 5 mps 753 mmHg 85%
    03:00 +2°C° 0 mm 5 mps 754 mmHg 87%
    04:00 +2°C° 0 mm 5 mps 754 mmHg 89%
    05:00 +2°C° 0 mm 5 mps 754 mmHg 89%
    06:00 +2°C° 0 mm 5 mps 754 mmHg 89%
    07:00 +2°C° 0 mm 5 mps 754 mmHg 90%
    08:00 +2°C° 0 mm 5 mps 755 mmHg 86%
    09:00 +3°C° 0 mm 5 mps 755 mmHg 83%
    10:00 +3°C° 0 mm 6 mps 756 mmHg 80%
    11:00 +4°C° 0 mm 6 mps 756 mmHg 77%
    12:00 +5°C° 0 mm 5 mps 756 mmHg 74%
    13:00 +6°C° 0 mm 5 mps 756 mmHg 71%
    14:00 +6°C° 0 mm 5 mps 756 mmHg 70%
    15:00 +6°C° 0 mm 4 mps 756 mmHg 70%
    16:00 +7°C° 0 mm 3 mps 757 mmHg 69%
    17:00 +7°C° 0 mm 3 mps 757 mmHg 72%
    18:00 +5°C° 0 mm 3 mps 757 mmHg 75%
    19:00 +6°C° 0 mm 2 mps 758 mmHg 77%
    20:00 +6°C° 0.1 mm 2 mps 758 mmHg 79%
    21:00 +6°C° 0.1 mm 2 mps 758 mmHg 80%
    22:00 +6°C° 0.1 mm 2 mps 758 mmHg 82%
    23:00 +6°C° 0 mm 2 mps 759 mmHg 83%

    Tomorrow, 21 February, Thursday

    Time Temperature Precipitation Wind Pressure Humidity
    00:00 +5°C° 0 mm 3 mps 759 mmHg 84%
    01:00 +5°C° 0 mm 3 mps 759 mmHg 86%
    02:00 +4°C° 0 mm 3 mps 759 mmHg 87%
    03:00 +4°C° 0 mm 3 mps 759 mmHg 87%
    04:00 +3°C° 0 mm 3 mps 759 mmHg 88%
    05:00 +3°C° 0 mm 3 mps 758 mmHg 86%
    06:00 +3°C° 0 mm 4 mps 758 mmHg 85%
    07:00 +3°C° 0 mm 4 mps 758 mmHg 83%
    08:00 +4°C° 0.1 mm 4 mps 758 mmHg 82%
    09:00 +3°C° 0.1 mm 5 mps 758 mmHg 81%
    10:00 +5°C° 0.1 mm 5 mps 758 mmHg 80%
    11:00 +5°C° 0.6 mm 5 mps 758 mmHg 79%
    12:00 +4°C° 0.6 mm 6 mps 758 mmHg 78%
    13:00 +5°C° 0.6 mm 6 mps 757 mmHg 77%
    14:00 +5°C° 0.9 mm 6 mps 757 mmHg 79%
    15:00 +4°C° 0.9 mm 6 mps 757 mmHg 81%
    16:00 +4°C° 0.9 mm 6 mps 756 mmHg 83%
    17:00 +5°C° 0.7 mm 6 mps 756 mmHg 85%
    18:00 +5°C° 0.7 mm 6 mps 756 mmHg 86%
    19:00 +5°C° 0.7 mm 6 mps 756 mmHg 88%
    20:00 +5°C° 0.4 mm 6 mps 756 mmHg 89%
    21:00 +5°C° 0.4 mm 6 mps 756 mmHg 90%
    22:00 +5°C° 0.4 mm 6 mps 756 mmHg 90%
    23:00 +5°C° 0.2 mm 6 mps 756 mmHg 90%

    Day after tomorrow, 22 February, Friday

    Time Temperature Precipitation Wind Pressure Humidity
    00:00 +7°C° 0.2 mm 6 mps 756 mmHg 90%
    01:00 +7°C° 0.2 mm 6 mps 756 mmHg 90%
    02:00 +5°C° 0.1 mm 6 mps 756 mmHg 90%
    03:00 +5°C° 0.1 mm 6 mps 757 mmHg 89%
    04:00 +5°C° 0.1 mm 6 mps 757 mmHg 89%
    05:00 +4°C° 0.3 mm 7 mps 758 mmHg 87%
    06:00 +3°C° 0.3 mm 7 mps 759 mmHg 85%
    07:00 +2°C° 0.3 mm 7 mps 760 mmHg 83%
    08:00 0°C° 0 mm 7 mps 761 mmHg 78%
    09:00 -1°C° 0 mm 6 mps 763 mmHg 73%
    10:00 -1°C° 0 mm 6 mps 764 mmHg 68%
    11:00 -1°C° 0 mm 6 mps 765 mmHg 63%
    12:00 +1°C° 0 mm 5 mps 766 mmHg 57%
    13:00 +1°C° 0 mm 5 mps 766 mmHg 52%
    14:00 +1°C° 0 mm 5 mps 767 mmHg 51%
    15:00 0°C° 0 mm 5 mps 767 mmHg 50%
    16:00 0°C° 0 mm 4 mps 768 mmHg 49%
    17:00 -1°C° 0 mm 4 mps 768 mmHg 52%
    18:00 -2°C° 0 mm 4 mps 769 mmHg 55%
    19:00 -2°C° 0 mm 3 mps 770 mmHg 58%
    20:00 -2°C° 0 mm 3 mps 770 mmHg 58%
    21:00 -2°C° 0 mm 3 mps 771 mmHg 58%
    22:00 -4°C° 0 mm 3 mps 771 mmHg 57%
    23:00 -4°C° 0 mm 3 mps 771 mmHg 57%

    23 February, Saturday

    Time Temperature Precipitation Wind Pressure Humidity
    00:00 -4°C° 0 mm 3 mps 772 mmHg 56%
    01:00 -4°C° 0 mm 3 mps 772 mmHg 55%
    02:00 -3°C° 0 mm 2 mps 772 mmHg 54%
    03:00 -3°C° 0 mm 2 mps 772 mmHg 53%
    04:00 -4°C° 0 mm 2 mps 771 mmHg 51%
    05:00 -4°C° 0 mm 2 mps 772 mmHg 50%
    06:00 -4°C° 0 mm 2 mps 772 mmHg 49%
    07:00 -4°C° 0 mm 2 mps 772 mmHg 48%
    08:00 -3°C° 0 mm 2 mps 772 mmHg 43%
    09:00 -3°C° 0 mm 2 mps 773 mmHg 38%
    10:00 -2°C° 0 mm 2 mps 773 mmHg 33%
    11:00 -1°C° 0 mm 2 mps 773 mmHg 30%
    12:00 -1°C° 0 mm 2 mps 772 mmHg 27%
    13:00 +1°C° 0 mm 2 mps 772 mmHg 25%
    14:00 +1°C° 0 mm 2 mps 772 mmHg 26%
    15:00 +2°C° 0 mm 1 mps 772 mmHg 27%
    16:00 +2°C° 0 mm 1 mps 772 mmHg 28%
    17:00 +1°C° 0 mm 1 mps 771 mmHg 31%
    18:00 0°C° 0 mm 1 mps 771 mmHg 34%
    19:00 -1°C° 0 mm 1 mps 771 mmHg 38%
    20:00 -1°C° 0 mm 1 mps 771 mmHg 38%
    21:00 -1°C° 0 mm 1 mps 771 mmHg 38%
    22:00 -1°C° 0 mm 1 mps 771 mmHg 38%
    23:00 0°C° 0 mm 1 mps 771 mmHg 37%

    24 February, Sunday

    Time Temperature Precipitation Wind Pressure Humidity
    00:00 0°C° 0 mm 1 mps 771 mmHg 36%
    01:00 0°C° 0 mm 1 mps 771 mmHg 35%
    02:00 0°C° 0 mm 1 mps 771 mmHg 35%
    03:00 -1°C° 0 mm 0 mps 770 mmHg 35%
    04:00 -1°C° 0 mm 0 mps 770 mmHg 35%
    05:00 -1°C° 0 mm 0 mps 770 mmHg 35%
    06:00 -2°C° 0 mm 0 mps 770 mmHg 35%
    07:00 -2°C° 0 mm 0 mps 770 mmHg 36%
    08:00 -1°C° 0 mm 0 mps 770 mmHg 32%
    09:00 +1°C° 0 mm 0 mps 770 mmHg 29%
    10:00 +2°C° 0 mm 0 mps 770 mmHg 26%
    11:00 +4°C° 0 mm 1 mps 770 mmHg 26%
    12:00 +4°C° 0 mm 1 mps 769 mmHg 26%
    13:00 +5°C° 0 mm 1 mps 769 mmHg 26%
    14:00 +5°C° 0 mm 1 mps 769 mmHg 31%
    15:00 +5°C° 0 mm 1 mps 769 mmHg 35%
    16:00 +5°C° 0 mm 1 mps 768 mmHg 40%
    17:00 +4°C° 0 mm 1 mps 768 mmHg 42%
    18:00 +2°C° 0 mm 1 mps 769 mmHg 45%
    19:00 +1°C° 0 mm 1 mps 769 mmHg 47%
    20:00 +1°C° 0 mm 1 mps 769 mmHg 47%
    21:00 +1°C° 0 mm 1 mps 769 mmHg 48%
    22:00 +1°C° 0 mm 1 mps 769 mmHg 48%
    23:00 +1°C° 0 mm 1 mps 769 mmHg 49%

    25 February, Monday

    Time Temperature Precipitation Wind Pressure Humidity
    00:00 +1°C° 0 mm 1 mps 769 mmHg 49%
    01:00 +1°C° 0 mm 1 mps 769 mmHg 49%
    02:00 +1°C° 0 mm 1 mps 769 mmHg 50%
    03:00 -1°C° 0 mm 2 mps 768 mmHg 50%
    04:00 -1°C° 0 mm 2 mps 768 mmHg 51%
    05:00 -1°C° 0 mm 2 mps 768 mmHg 54%
    06:00 -1°C° 0 mm 2 mps 768 mmHg 56%
    07:00 -1°C° 0 mm 2 mps 768 mmHg 59%
    08:00 +1°C° 0 mm 2 mps 768 mmHg 57%
    09:00 +1°C° 0 mm 3 mps 768 mmHg 55%
    10:00 +3°C° 0 mm 3 mps 769 mmHg 53%
    11:00 +4°C° 0 mm 3 mps 768 mmHg 55%
    12:00 +5°C° 0 mm 4 mps 768 mmHg 56%
    13:00 +6°C° 0 mm 4 mps 768 mmHg 57%
    14:00 +6°C° 0 mm 4 mps 768 mmHg 62%
    15:00 +7°C° 0 mm 3 mps 767 mmHg 66%
    16:00 +7°C° 0 mm 3 mps 767 mmHg 71%
    17:00 +5°C° 0 mm 3 mps 768 mmHg 76%
    18:00 +4°C° 0 mm 3 mps 768 mmHg 82%
    19:00 +3°C° 0 mm 2 mps 768 mmHg 87%
    20:00 +3°C° 0 mm 2 mps 768 mmHg 86%
    21:00 +3°C° 0 mm 2 mps 769 mmHg 85%
    22:00 +2°C° 0 mm 2 mps 769 mmHg 84%
    23:00 +2°C° 0 mm 2 mps 769 mmHg 83%
    Show more